Content
SEND FEEDBACK

Daily
Averages
Monthly
Summary
United States of America

HAZELWOOD, MISSOURI


Home > North America > United States > Missouri
Elevation: 570 feet     Latitude: 38 45N     Longitude: 090 22W

WEATHER
 
SELECT A DAY
Number of Records: 196,698;   Date Range: 1/1/95 - 9/22/14
 
SHARE

PRINT THIS DATA

[ ← Previous Day ]
WEATHER ALMANAC - APRIL 4, 2013
[ Next Day → ]
[ °C ]   °F
Weather ElementAverageHighLow
Temperature44 °F60.1 °F (3:54 pm)27 °F (5:54 am)
Dewpoint24.6 °F30 °F (7:54 pm)19 °F (10:54 am)
Humidity53.6 %89 % (5:54 am)20 % (4:54 pm)
Barometer30.14 in30.25 in (1:54 am)30.06 in (3:54 pm)
Wind Speed2.3 mph9.2 mph (1:54 pm)
Weather ElementAverage
Visibility10 mi
Wind DirectionENE (79.1 °)

Weather ElementTotal
Precipitation---
Heating Degree Days21.5 (Base 65)
Averaged from 23 records on April 4, 2013
WEATHER CONDITIONS BREAKOUT
WIND DIRECTION BREAKOUT
WEATHER BY HOUR - APRIL 4, 2013
[ °C ]   °F
Local TimeTemperatureDewpointHumidityBarometerVisibilityWind DirectionWind SpeedGust SpeedPrecipitationEventsConditions
1:54 AM32.0 °F27.0 °F82 %30.25 in10.0 miWSW (250°)3.5 mphClear
2:54 AM30.9 °F26.1 °F82 %30.22 in10.0 miCalmClear
3:54 AM30.0 °F26.1 °F85 %30.21 in10.0 miCalmClear
4:54 AM28.9 °F25.0 °F85 %30.20 in10.0 miCalmClear
5:54 AM27.0 °F24.1 °F89 %30.20 in10.0 miCalmClear
6:54 AM27.0 °F21.9 °F81 %30.22 in10.0 miCalmScattered Clouds
7:54 AM33.1 °F28.0 °F82 %30.22 in10.0 miCalmClear
8:54 AM42.1 °F28.0 °F58 %30.20 in10.0 miCalmScattered Clouds
9:54 AM46.9 °F26.1 °F44 %30.17 in10.0 miCalmPartly Cloudy
10:54 AM51.1 °F19.0 °F28 %30.16 in10.0 miNE (40°)5.8 mphPartly Cloudy
11:54 AM53.1 °F21.0 °F29 %30.15 in10.0 miCalmPartly Cloudy
12:54 PM55.0 °F19.9 °F25 %30.12 in10.0 miCalmPartly Cloudy
1:54 PM57.0 °F21.9 °F26 %30.10 in10.0 miNNE (30°)9.2 mphPartly Cloudy
2:54 PM57.9 °F21.9 °F25 %30.09 in10.0 miVariable5.8 mphScattered Clouds
3:54 PM60.1 °F21.0 °F22 %30.06 in10.0 miNNW (340°)8.1 mphScattered Clouds
4:54 PM60.1 °F19.0 °F20 %30.06 in10.0 miNW (310°)5.8 mphScattered Clouds
5:54 PM59.0 °F21.0 °F23 %30.06 in10.0 miVariable3.5 mphMostly Cloudy
6:54 PM57.0 °F23.0 °F27 %30.06 in10.0 miNNW (340°)4.6 mphPartly Cloudy
7:54 PM46.9 °F30.0 °F52 %30.06 in10.0 miCalmClear
8:54 PM43.0 °F28.9 °F58 %30.07 in10.0 miCalmClear
9:54 PM39.0 °F30.0 °F70 %30.08 in10.0 miWSW (250°)3.5 mphClear
10:54 PM39.0 °F28.9 °F67 %30.08 in10.0 miWest (260°)3.5 mphClear
11:54 PM36.0 °F28.0 °F73 %30.08 in10.0 miCalmClear
Hourly data recorded from KSUS, located miles away from Hazelwood, Missouri







STORIES FROM OUR PARTNERS